| time (UTC) | temp C | wind direction | speed KPH | gust KPH | rain 1hr cm | rain 24hr cm | rain mn cm | humidity % | barometer mb |
| 20260502151005 | 16 | 134 | 1.6 | 8.0 | 0.00 | 1.70 | 0.00 | 66 | 1008.3 |
| 20260502130504 | 10 | 89 | 3.2 | 8.0 | 0.00 | 2.62 | 0.00 | 91 | 1007.1 |
| 20260502123504 | 9 | 30 | 1.6 | 3.2 | 0.00 | 2.62 | 0.00 | 92 | 1006.7 |
| 20260502122504 | 8 | 92 | 1.6 | 3.2 | 0.00 | 2.62 | 0.00 | 92 | 1006.6 |
| 20260502122005 | 8 | 127 | 1.6 | 3.2 | 0.00 | 2.62 | 0.00 | 93 | 1006.5 |
| 20260502121504 | 8 | 68 | 1.6 | 3.2 | 0.00 | 2.62 | 0.00 | 93 | 1006.3 |
| 20260502115504 | 8 | 69 | 0.0 | 1.6 | 0.00 | 2.62 | 0.00 | 93 | 1005.9 |
| 20260502114004 | 8 | 71 | 0.0 | 3.2 | 0.00 | 2.67 | 0.00 | 93 | 1005.6 |
| 20260502113504 | 8 | 33 | 0.0 | 1.6 | 0.00 | 2.67 | 0.00 | 93 | 1005.6 |
| 20260502112004 | 8 | 100 | 0.0 | 3.2 | 0.00 | 2.79 | 0.00 | 93 | 1005.6 |
| 20260502111504 | 8 | 93 | 0.0 | 1.6 | 0.00 | 2.84 | 0.00 | 93 | 1005.5 |
| 20260502111004 | 8 | 107 | 0.0 | 1.6 | 0.00 | 2.90 | 0.00 | 93 | 1005.4 |
| 20260502110004 | 8 | 96 | 1.6 | 4.8 | 0.00 | 2.95 | 0.00 | 92 | 1005.3 |
| 20260502105004 | 8 | 86 | 0.0 | 3.2 | 0.00 | 3.00 | 0.00 | 92 | 1004.9 |
| 20260502104504 | 8 | 96 | 0.0 | 1.6 | 0.00 | 3.02 | 0.00 | 92 | 1004.9 |
| 20260502104004 | 9 | 177 | 0.0 | 0.0 | 0.00 | 3.05 | 0.00 | 91 | 1004.6 |
| 20260502103504 | 9 | 129 | 0.0 | 1.6 | 0.00 | 3.07 | 0.00 | 91 | 1004.6 |
| 20260502103004 | 9 | 127 | 0.0 | 4.8 | 0.00 | 3.12 | 0.00 | 91 | 1004.5 |
| 20260502102004 | 9 | 138 | 1.6 | 8.0 | 0.00 | 3.20 | 0.00 | 91 | 1004.2 |
| 20260502101504 | 9 | 91 | 1.6 | 8.0 | 0.00 | 3.20 | 0.00 | 91 | 1004.3 |
| 20260502101004 | 9 | 95 | 1.6 | 3.2 | 0.00 | 3.20 | 0.00 | 91 | 1004.3 |
| 20260502100504 | 9 | 103 | 0.0 | 9.7 | 0.00 | 3.20 | 0.00 | 91 | 1004.2 |
| 20260502091505 | 9 | 131 | 1.6 | 3.2 | 0.00 | 3.25 | 0.00 | 91 | 1004.1 |
| 20260502090504 | 9 | 80 | 3.2 | 4.8 | 0.00 | 3.25 | 0.00 | 91 | 1004.0 |
| 20260502071504 | 10 | 109 | 1.6 | 8.0 | 0.00 | 3.40 | 0.00 | 94 | 1004.0 |
| 20260502071004 | 10 | 103 | 1.6 | 4.8 | 0.00 | 3.40 | 0.00 | 94 | 1003.8 |
| 20260502070504 | 10 | 124 | 0.0 | 8.0 | 0.00 | 3.40 | 0.00 | 94 | 1004.0 |
| 20260502070005 | 10 | 129 | 1.6 | 8.0 | 0.00 | 3.40 | 0.00 | 94 | 1004.1 |
| 20260502065504 | 10 | 171 | 0.0 | 3.2 | 0.00 | 3.40 | 0.00 | 94 | 1004.1 |
| 20260502064505 | 10 | 140 | 1.6 | 4.8 | 0.00 | 3.40 | 0.00 | 94 | 1004.0 |
| 20260502064004 | 10 | 158 | 0.0 | 1.6 | 0.00 | 3.40 | 0.00 | 94 | 1003.8 |
| 20260502063504 | 10 | 98 | 0.0 | 1.6 | 0.00 | 3.40 | 0.00 | 94 | 1003.9 |
| 20260502063005 | 10 | 111 | 0.0 | 8.0 | 0.00 | 3.40 | 0.00 | 94 | 1003.8 |
| 20260502062504 | 10 | 108 | 1.6 | 4.8 | 0.00 | 3.40 | 0.00 | 94 | 1003.8 |
| 20260502062004 | 10 | 140 | 1.6 | 3.2 | 0.00 | 3.40 | 0.00 | 94 | 1004.0 |
| 20260502061504 | 10 | 102 | 1.6 | 3.2 | 0.00 | 3.40 | 0.00 | 94 | 1004.0 |
| 20260502061005 | 10 | 132 | 0.0 | 1.6 | 0.00 | 3.40 | 0.00 | 94 | 1003.8 |
| 20260502060504 | 10 | 125 | 0.0 | 0.0 | 0.00 | 3.40 | 0.00 | 94 | 1003.8 |
| 20260502060005 | 10 | 98 | 0.0 | 3.2 | 0.00 | 3.40 | 0.00 | 94 | 1003.8 |
| 20260502055504 | 10 | 76 | 1.6 | 3.2 | 0.00 | 3.43 | 0.00 | 94 | 1004.0 |
| 20260502055004 | 10 | 74 | 1.6 | 4.8 | 0.00 | 3.43 | 0.00 | 94 | 1003.9 |
| 20260502054505 | 10 | 90 | 3.2 | 8.0 | 0.00 | 3.43 | 0.00 | 93 | 1004.0 |
| 20260502054004 | 10 | 119 | 1.6 | 3.2 | 0.00 | 3.43 | 0.00 | 93 | 1004.1 |
| 20260502053006 | 10 | 78 | 1.6 | 4.8 | 0.00 | 3.43 | 0.00 | 93 | 1003.9 |
| 20260502052505 | 11 | 48 | 0.0 | 1.6 | 0.00 | 3.43 | 0.00 | 93 | 1003.9 |
| 20260502051505 | 11 | 112 | 1.6 | 3.2 | 0.00 | 3.43 | 0.00 | 93 | 1003.8 |
| 20260502050505 | 11 | 95 | 0.0 | 1.6 | 0.00 | 3.45 | 0.00 | 92 | 1003.8 |
| 20260502045505 | 11 | 108 | 1.6 | 4.8 | 0.00 | 3.48 | 3.45 | 92 | 1003.8 |
| 20260502045004 | 11 | 100 | 1.6 | 4.8 | 0.00 | 3.51 | 3.45 | 92 | 1003.6 |
| 20260502044504 | 11 | 142 | 1.6 | 4.8 | 0.00 | 3.51 | 3.45 | 92 | 1003.5 |
| 20260502044004 | 11 | 122 | 1.6 | 4.8 | 0.00 | 3.51 | 3.45 | 92 | 1003.7 |
| 20260502043504 | 11 | 117 | 1.6 | 4.8 | 0.00 | 3.51 | 3.45 | 92 | 1003.6 |
| 20260502043004 | 11 | 80 | 1.6 | 3.2 | 0.00 | 3.51 | 3.45 | 92 | 1003.7 |
| 20260502042504 | 11 | 145 | 1.6 | 4.8 | 0.00 | 3.51 | 3.45 | 92 | 1003.7 |
| 20260502042004 | 11 | 108 | 1.6 | 3.2 | 0.00 | 3.51 | 3.45 | 92 | 1003.6 |
| 20260502041505 | 11 | 115 | 1.6 | 3.2 | 0.00 | 3.51 | 3.45 | 92 | 1003.5 |
| 20260502041004 | 11 | 106 | 1.6 | 3.2 | 0.00 | 3.51 | 3.45 | 93 | 1003.3 |
| 20260502040504 | 11 | 181 | 0.0 | 1.6 | 0.00 | 3.51 | 3.45 | 93 | 1003.5 |
| 20260502040005 | 11 | 127 | 0.0 | 3.2 | 0.00 | 3.51 | 3.45 | 93 | 1003.6 |
| 20260502035004 | 11 | 163 | 1.6 | 3.2 | 0.00 | 3.51 | 3.45 | 93 | 1003.7 |
| 20260502034505 | 11 | 102 | 1.6 | 3.2 | 0.00 | 3.51 | 3.45 | 93 | 1003.7 |
| 20260502034004 | 11 | 141 | 3.2 | 8.0 | 0.00 | 3.51 | 3.45 | 93 | 1003.7 |
| 20260502033504 | 11 | 130 | 1.6 | 3.2 | 0.00 | 3.53 | 3.45 | 93 | 1003.7 |
| 20260502033004 | 11 | 91 | 1.6 | 4.8 | 0.00 | 3.58 | 3.45 | 93 | 1003.6 |
| 20260502032504 | 11 | 150 | 1.6 | 9.7 | 0.00 | 3.61 | 3.45 | 93 | 1003.5 |
| 20260502032004 | 11 | 135 | 0.0 | 4.8 | 0.00 | 3.63 | 3.45 | 92 | 1003.6 |
| 20260502031505 | 11 | 120 | 0.0 | 4.8 | 0.00 | 3.66 | 3.45 | 92 | 1003.6 |
| 20260502031005 | 11 | 88 | 3.2 | 4.8 | 0.00 | 3.71 | 3.45 | 92 | 1003.6 |
| 20260502030504 | 11 | 96 | 0.0 | 1.6 | 0.00 | 3.73 | 3.45 | 92 | 1003.5 |
| 20260502025504 | 11 | 106 | 1.6 | 8.0 | 0.00 | 3.76 | 3.45 | 91 | 1003.4 |
| 20260502025004 | 11 | 268 | 0.0 | 1.6 | 0.00 | 3.78 | 3.45 | 91 | 1003.3 |
| 20260502024505 | 11 | 93 | 1.6 | 1.6 | 0.00 | 3.91 | 3.45 | 91 | 1003.3 |
| 20260502024004 | 11 | 40 | 1.6 | 4.8 | 0.00 | 3.91 | 3.45 | 91 | 1003.2 |
| 20260502023504 | 11 | 17 | 1.6 | 9.7 | 0.00 | 3.91 | 3.45 | 91 | 1003.1 |
| 20260502023004 | 11 | 153 | 3.2 | 4.8 | 0.00 | 3.91 | 3.45 | 91 | 1003.0 |
| 20260502022504 | 11 | 123 | 1.6 | 3.2 | 0.00 | 3.91 | 3.45 | 92 | 1002.8 |
| 20260502022004 | 11 | 108 | 1.6 | 8.0 | 0.00 | 3.91 | 3.45 | 92 | 1002.8 |
| 20260502021505 | 11 | 81 | 1.6 | 4.8 | 0.00 | 3.91 | 3.45 | 92 | 1002.9 |
| 20260502021004 | 11 | 108 | 1.6 | 3.2 | 0.00 | 3.91 | 3.45 | 92 | 1002.7 |
| 20260502020505 | 11 | 105 | 1.6 | 9.7 | 0.00 | 3.91 | 3.45 | 92 | 1002.6 |
| 20260502020006 | 11 | 183 | 1.6 | 3.2 | 0.00 | 3.91 | 3.45 | 92 | 1002.5 |
| 20260502015504 | 11 | 98 | 0.0 | 8.0 | 0.00 | 3.91 | 3.45 | 92 | 1002.1 |
| 20260502014505 | 11 | 160 | 3.2 | 8.0 | 0.00 | 3.91 | 3.45 | 92 | 1002.0 |
| 20260502014004 | 11 | 98 | 1.6 | 3.2 | 0.00 | 3.91 | 3.45 | 92 | 1002.0 |
| 20260502013505 | 11 | 139 | 0.0 | 3.2 | 0.00 | 3.91 | 3.45 | 92 | 1002.1 |
| 20260502013005 | 11 | 152 | 3.2 | 8.0 | 0.00 | 3.91 | 3.45 | 92 | 1002.0 |
| 20260502012505 | 11 | 186 | 3.2 | 4.8 | 0.00 | 3.91 | 3.45 | 92 | 1001.8 |
| 20260502012004 | 11 | 224 | 3.2 | 11.3 | 0.00 | 3.91 | 3.45 | 91 | 1001.7 |
| 20260502011506 | 11 | 159 | 3.2 | 8.0 | 0.00 | 3.91 | 3.45 | 91 | 1001.6 |
| 20260502011005 | 12 | 198 | 3.2 | 11.3 | 0.00 | 3.91 | 3.45 | 91 | 1001.6 |
| 20260502010504 | 11 | 184 | 8.0 | 12.9 | 0.00 | 3.91 | 3.45 | 91 | 1001.4 |
| 20260502010006 | 11 | 200 | 4.8 | 11.3 | 0.00 | 3.91 | 3.45 | 91 | 1001.2 |
| 20260502005504 | 11 | 169 | 4.8 | 11.3 | 0.00 | 3.91 | 3.45 | 91 | 1001.3 |
| 20260502004506 | 11 | 226 | 4.8 | 11.3 | 0.00 | 3.91 | 3.45 | 91 | 1001.1 |
| 20260502003504 | 11 | 149 | 8.0 | 12.9 | 0.00 | 3.91 | 3.45 | 91 | 1000.9 |
| 20260502003006 | 11 | 102 | 8.0 | 12.9 | 0.00 | 3.91 | 3.45 | 91 | 1000.8 |
| 20260502002505 | 11 | 156 | 3.2 | 8.0 | 0.00 | 3.91 | 3.45 | 92 | 1000.6 |
| 20260502001506 | 11 | 179 | 8.0 | 14.5 | 0.00 | 3.91 | 3.45 | 92 | 1000.7 |
| 20260502001005 | 11 | 181 | 3.2 | 11.3 | 0.00 | 3.91 | 3.45 | 93 | 1000.5 |
| 20260502000505 | 11 | 94 | 4.8 | 11.3 | 0.00 | 3.91 | 3.45 | 93 | 1000.5 |
| 20260502000005 | 11 | 134 | 4.8 | 8.0 | 0.00 | 3.91 | 3.45 | 93 | 1000.5 |
| 20260501235505 | 11 | 191 | 4.8 | 11.3 | 0.00 | 3.91 | 3.45 | 93 | 1000.6 |
| 20260501235004 | 11 | 160 | 6.4 | 11.3 | 0.00 | 3.91 | 3.45 | 93 | 1000.6 |
| 20260501234504 | 11 | 233 | 3.2 | 12.9 | 0.00 | 3.91 | 3.45 | 93 | 1000.6 |
| 20260501234005 | 11 | 73 | 3.2 | 9.7 | 0.00 | 3.91 | 3.45 | 93 | 1000.6 |
| 20260501233504 | 11 | 117 | 3.2 | 8.0 | 0.00 | 3.91 | 3.45 | 93 | 1000.6 |
| 20260501233005 | 11 | 106 | 3.2 | 9.7 | 0.03 | 3.91 | 3.45 | 93 | 1000.5 |
| 20260501232504 | 11 | 90 | 8.0 | 12.9 | 0.03 | 3.91 | 3.45 | 94 | 1000.6 |
| 20260501232004 | 11 | 214 | 9.7 | 20.9 | 0.03 | 3.91 | 3.45 | 94 | 1000.4 |
| 20260501231005 | 11 | 175 | 9.7 | 19.3 | 0.05 | 3.96 | 3.45 | 95 | 1000.1 |
| 20260501230504 | 11 | 142 | 6.4 | 14.5 | 0.08 | 4.01 | 3.45 | 96 | 1000.0 |
| 20260501230004 | 12 | 95 | 4.8 | 19.3 | 0.15 | 4.06 | 3.45 | 96 | 1000.0 |
| 20260501225504 | 12 | 71 | 4.8 | 9.7 | 0.18 | 4.14 | 3.45 | 96 | 1000.0 |
| 20260501225004 | 12 | 163 | 4.8 | 9.7 | 0.23 | 4.17 | 3.45 | 96 | 999.9 |
| 20260501224505 | 12 | 141 | 6.4 | 14.5 | 0.28 | 4.17 | 3.45 | 96 | 999.8 |
| 20260501223504 | 12 | 107 | 4.8 | 11.3 | 0.36 | 4.17 | 3.45 | 96 | 999.9 |
| 20260501223005 | 12 | 260 | 3.2 | 14.5 | 0.41 | 4.14 | 3.43 | 96 | 1000.0 |
| 20260501222004 | 12 | 66 | 3.2 | 11.3 | 0.41 | 4.14 | 3.43 | 96 | 1000.0 |
| 20260501221504 | 12 | 347 | 3.2 | 11.3 | 0.38 | 4.11 | 3.40 | 96 | 999.9 |
| 20260501221004 | 12 | 107 | 6.4 | 12.9 | 0.38 | 4.14 | 3.40 | 95 | 999.9 |
| 20260501220504 | 12 | 101 | 4.8 | 12.9 | 0.36 | 4.11 | 3.38 | 95 | 1000.2 |
| 20260501220004 | 12 | 172 | 6.4 | 12.9 | 0.28 | 4.06 | 3.30 | 95 | 1000.2 |
| 20260501215004 | 12 | 75 | 1.6 | 8.0 | 0.20 | 3.99 | 3.23 | 95 | 1000.1 |
| 20260501214505 | 12 | 178 | 4.8 | 11.3 | 0.15 | 3.94 | 3.17 | 95 | 1000.0 |
| 20260501214005 | 12 | 79 | 4.8 | 11.3 | 0.10 | 3.89 | 3.12 | 95 | 999.9 |
| 20260501213005 | 12 | 132 | 4.8 | 9.7 | 0.00 | 3.78 | 3.02 | 94 | 999.5 |
| 20260501212504 | 12 | 129 | 4.8 | 11.3 | 0.00 | 3.78 | 3.02 | 94 | 999.6 |
| 20260501212004 | 12 | 60 | 3.2 | 12.9 | 0.00 | 3.78 | 3.02 | 94 | 999.3 |
| 20260501211504 | 12 | 90 | 8.0 | 14.5 | 0.03 | 3.78 | 3.02 | 95 | 999.1 |
| 20260501211004 | 12 | 124 | 3.2 | 9.7 | 0.03 | 3.78 | 3.02 | 95 | 998.9 |
| 20260501210505 | 12 | 81 | 8.0 | 14.5 | 0.03 | 3.78 | 3.02 | 95 | 998.7 |
| 20260501210005 | 12 | 43 | 6.4 | 14.5 | 0.03 | 3.78 | 3.02 | 95 | 998.2 |
| 20260501205004 | 12 | 101 | 8.0 | 20.9 | 0.05 | 3.78 | 3.02 | 95 | 998.3 |
| 20260501204505 | 12 | 126 | 8.0 | 11.3 | 0.05 | 3.78 | 3.02 | 95 | 998.1 |
| 20260501204004 | 13 | 223 | 6.4 | 16.1 | 0.08 | 3.78 | 3.02 | 95 | 997.9 |
| 20260501203504 | 13 | 123 | 4.8 | 16.1 | 0.10 | 3.78 | 3.02 | 95 | 998.0 |
| 20260501203006 | 13 | 202 | 4.8 | 12.9 | 0.13 | 3.78 | 3.02 | 95 | 997.8 |
| 20260501202504 | 13 | 69 | 6.4 | 11.3 | 0.15 | 3.78 | 3.02 | 95 | 997.9 |
| 20260501201505 | 13 | 128 | 9.7 | 19.3 | 0.15 | 3.76 | 3.00 | 95 | 997.9 |
| 20260501200504 | 13 | 49 | 3.2 | 11.3 | 0.15 | 3.76 | 3.00 | 95 | 998.1 |
| 20260501200005 | 13 | 162 | 4.8 | 16.1 | 0.15 | 3.76 | 3.00 | 96 | 998.1 |
| 20260501195504 | 13 | 165 | 8.0 | 16.1 | 0.13 | 3.73 | 2.97 | 96 | 998.1 |
| 20260501194504 | 13 | 188 | 3.2 | 8.0 | 0.13 | 3.73 | 2.97 | 96 | 997.9 |
| 20260501194005 | 13 | 183 | 3.2 | 8.0 | 0.10 | 3.71 | 2.95 | 96 | 998.0 |
| 20260501193504 | 13 | 43 | 3.2 | 11.3 | 0.08 | 3.68 | 2.92 | 96 | 998.5 |
| 20260501193004 | 13 | 89 | 4.8 | 9.7 | 0.08 | 3.66 | 2.90 | 96 | 998.7 |
| 20260501192504 | 13 | 60 | 1.6 | 4.8 | 0.08 | 3.63 | 2.87 | 96 | 998.7 |
| 20260501192004 | 13 | 129 | 4.8 | 11.3 | 0.15 | 3.61 | 2.84 | 96 | 998.7 |
| 20260501191504 | 13 | 106 | 3.2 | 11.3 | 0.23 | 3.61 | 2.84 | 96 | 998.7 |
| 20260501191004 | 13 | 103 | 4.8 | 11.3 | 0.30 | 3.61 | 2.84 | 96 | 998.2 |
| 20260501190504 | 13 | 71 | 4.8 | 16.1 | 0.41 | 3.61 | 2.84 | 96 | 998.0 |
| 20260501190004 | 13 | 40 | 6.4 | 14.5 | 0.61 | 3.61 | 2.84 | 96 | 997.7 |
| 20260501185504 | 13 | 52 | 1.6 | 11.3 | 0.64 | 3.61 | 2.84 | 97 | 997.7 |
| 20260501185004 | 13 | 311 | 8.0 | 12.9 | 0.64 | 3.63 | 2.84 | 96 | 998.0 |
| 20260501184505 | 13 | 79 | 9.7 | 12.9 | 0.64 | 3.66 | 2.84 | 96 | 998.1 |
| 20260501184004 | 13 | 26 | 4.8 | 9.7 | 0.64 | 3.68 | 2.84 | 97 | 998.2 |
| 20260501183504 | 13 | 125 | 6.4 | 11.3 | 0.64 | 3.73 | 2.84 | 96 | 998.4 |
| 20260501183004 | 13 | 201 | 4.8 | 12.9 | 0.61 | 3.86 | 2.82 | 97 | 999.0 |
| 20260501182504 | 13 | 47 | 3.2 | 11.3 | 0.58 | 4.01 | 2.79 | 96 | 999.8 |
| 20260501181504 | 13 | 60 | 3.2 | 4.8 | 0.41 | 3.91 | 2.62 | 96 | 1000.9 |
| 20260501181004 | 12 | 90 | 4.8 | 9.7 | 0.33 | 3.84 | 2.54 | 96 | 1001.5 |
| 20260501180504 | 13 | 90 | 1.6 | 4.8 | 0.23 | 3.73 | 2.44 | 96 | 1001.5 |
| 20260501180005 | 13 | 208 | 1.6 | 8.0 | 0.03 | 3.53 | 2.24 | 96 | 1001.4 |
| 20260501175504 | 13 | 108 | 1.6 | 8.0 | 0.00 | 3.51 | 2.21 | 96 | 1000.8 |
| 20260501175004 | 13 | 47 | 4.8 | 9.7 | 0.00 | 3.51 | 2.21 | 96 | 999.6 |
| 20260501174504 | 13 | 47 | 3.2 | 4.8 | 0.00 | 3.51 | 2.21 | 96 | 999.1 |
| 20260501174004 | 13 | 55 | 3.2 | 9.7 | 0.00 | 3.51 | 2.21 | 96 | 998.9 |
| 20260501173004 | 13 | 185 | 3.2 | 11.3 | 0.00 | 3.51 | 2.21 | 96 | 999.0 |
| 20260501172004 | 13 | 56 | 3.2 | 4.8 | 0.00 | 3.51 | 2.21 | 96 | 999.0 |
| 20260501171505 | 13 | 235 | 3.2 | 14.5 | 0.00 | 3.51 | 2.21 | 96 | 998.6 |
| 20260501171005 | 13 | 163 | 6.4 | 14.5 | 0.00 | 3.51 | 2.21 | 96 | 998.7 |
| 20260501170004 | 13 | 252 | 8.0 | 14.5 | 0.00 | 3.51 | 2.21 | 96 | 998.6 |
| 20260501165503 | 13 | 169 | 4.8 | 11.3 | 0.00 | 3.51 | 2.21 | 96 | 998.7 |
| 20260501165004 | 13 | 163 | 8.0 | 11.3 | 0.00 | 3.51 | 2.21 | 96 | 998.6 |
| 20260501164505 | 13 | 190 | 3.2 | 16.1 | 0.03 | 3.51 | 2.21 | 96 | 998.7 |
| 20260501164005 | 13 | 171 | 9.7 | 16.1 | 0.08 | 3.51 | 2.21 | 96 | 998.7 |
| 20260501163005 | 13 | 243 | 3.2 | 11.3 | 0.23 | 3.53 | 2.21 | 97 | 998.8 |
| 20260501162504 | 13 | 126 | 8.0 | 14.5 | 0.30 | 3.53 | 2.21 | 97 | 998.8 |
| 20260501162004 | 13 | 230 | 6.4 | 12.9 | 0.38 | 3.53 | 2.21 | 97 | 998.8 |
| 20260501161504 | 13 | 226 | 8.0 | 14.5 | 0.41 | 3.53 | 2.21 | 97 | 998.3 |
| 20260501161004 | 13 | 199 | 4.8 | 12.9 | 0.46 | 3.56 | 2.21 | 97 | 998.4 |
| 20260501160504 | 13 | 177 | 8.0 | 19.3 | 0.48 | 3.56 | 2.21 | 97 | 998.3 |
| 20260501160004 | 13 | 134 | 4.8 | 12.9 | 0.51 | 3.56 | 2.21 | 97 | 998.2 |
| 20260501155504 | 13 | 200 | 4.8 | 12.9 | 0.51 | 3.56 | 2.21 | 97 | 998.1 |